GW2565 Weather Reports


time (UTC)temp
F
wind
direction
speed
knots
gust
knots
rain 1hr
in
rain 24hr
in
rain mn
in
humidity
%
barometer
mb
20260510044933 46 29 0.0 0.9 0.00 0.00 0.00 99 1014.6
20260510044430 45 37 0.0 0.0 0.00 0.00 0.00 99 1014.6
20260510043927 45 37 0.0 0.9 0.00 0.00 0.00 99 1014.6
20260510043422 45 29 0.0 0.9 0.00 0.00 0.00 99 1014.5
20260510042921 45 29 0.0 0.0 0.00 0.00 0.00 99 1014.5
20260510042416 46 29 0.0 0.9 0.00 0.00 0.00 99 1014.3
20260510041912 46 28 0.9 0.9 0.00 0.00 0.00 99 1014.2
20260510041410 46 37 0.0 0.9 0.00 0.00 0.00 99 1014.2
20260510040908 46 38 0.0 0.9 0.00 0.00 0.00 99 1014.2
20260510040404 46 37 0.0 0.9 0.00 0.00 0.00 99 1013.9
20260510035900 46 37 0.0 0.0 0.00 0.44 0.44 99 1013.9
20260510035356 47 37 0.0 0.0 0.00 0.44 0.44 99 1014.0
20260510034851 47 46 0.0 0.0 0.00 0.44 0.44 99 1013.8
20260510034350 47 49 0.0 0.0 0.00 0.44 0.44 99 1013.9
20260510033846 47 48 0.0 0.9 0.00 0.44 0.44 99 1013.8
20260510033342 46 48 0.0 0.9 0.00 0.44 0.44 99 1014.0
20260510032839 47 47 0.0 0.9 0.00 0.44 0.44 99 1013.8
20260510032336 46 48 0.0 0.9 0.00 0.44 0.44 99 1013.9
20260510031831 47 47 0.0 0.0 0.00 0.44 0.44 99 1013.9
20260510031326 47 47 0.0 0.9 0.00 0.44 0.44 99 1014.0
20260510030821 47 47 0.0 0.9 0.00 0.44 0.44 99 1013.8
20260510030318 47 48 0.9 0.9 0.00 0.44 0.44 99 1013.9
20260510025815 48 42 0.0 0.0 0.00 0.44 0.44 99 1013.8
20260510025312 48 44 0.0 0.9 0.00 0.44 0.44 99 1013.9
20260510024809 48 38 0.0 0.0 0.00 0.44 0.44 99 1013.9
20260510024306 48 38 0.0 0.9 0.00 0.44 0.44 99 1013.7
20260510023802 48 47 0.0 0.0 0.00 0.44 0.44 99 1013.8
20260510023259 48 41 0.0 0.9 0.00 0.44 0.44 99 1013.7
20260510022755 48 48 0.0 0.9 0.00 0.44 0.44 99 1013.8
20260510022250 48 48 0.0 0.9 0.00 0.44 0.44 99 1013.8
20260510021749 48 48 0.0 0.9 0.00 0.44 0.44 99 1013.8
20260510021247 48 48 0.9 0.9 0.00 0.44 0.44 99 1013.7
20260510020742 48 47 0.0 0.0 0.00 0.44 0.44 99 1014.0
20260510020237 48 47 0.0 0.9 0.00 0.44 0.44 99 1013.9
20260510015734 48 47 0.0 0.0 0.00 0.44 0.44 99 1013.7
20260510015230 48 47 0.0 0.0 0.00 0.44 0.44 98 1013.6
20260510014724 48 47 0.0 0.0 0.00 0.44 0.44 98 1013.7
20260510014222 48 47 0.0 0.9 0.00 0.44 0.44 98 1013.6
20260510013718 49 40 0.0 0.9 0.00 0.44 0.44 98 1013.7
20260510013213 49 47 0.0 0.9 0.00 0.44 0.44 98 1013.6
20260510012708 49 5 0.0 0.9 0.00 0.44 0.44 98 1013.6
20260510012203 49 40 0.0 0.0 0.00 0.44 0.44 98 1013.5
20260510011658 49 25 0.9 2.6 0.00 0.44 0.44 99 1013.6
20260510011154 49 37 0.0 0.9 0.00 0.44 0.44 99 1013.4
20260510010651 48 59 0.9 1.7 0.00 0.44 0.44 99 1013.3
20260510010148 48 62 0.0 0.9 0.00 0.44 0.44 99 1013.5
20260510005644 48 62 0.9 0.9 0.00 0.44 0.44 99 1013.6
20260510005141 48 62 0.0 0.9 0.00 0.44 0.44 99 1013.5
20260510004639 49 62 0.9 0.9 0.00 0.44 0.44 99 1013.3
20260510004137 48 62 0.9 0.9 0.00 0.44 0.44 99 1013.4
20260510003634 49 62 0.0 0.9 0.00 0.44 0.44 99 1013.4
20260510003129 49 62 0.0 0.0 0.00 0.44 0.44 98 1013.3
20260510002623 49 62 0.0 0.0 0.00 0.44 0.44 98 1013.3
20260510002121 49 62 0.0 0.0 0.00 0.44 0.44 98 1013.4
20260510001617 50 62 0.0 0.9 0.00 0.44 0.44 97 1013.1
20260510001117 50 62 0.0 0.9 0.00 0.44 0.44 96 1013.1
20260510000616 51 62 0.0 0.0 0.00 0.44 0.44 95 1012.8
20260510000114 51 62 0.0 0.0 0.00 0.44 0.44 94 1012.6
20260509235610 52 62 0.0 0.9 0.00 0.44 0.44 93 1012.6
20260509235107 52 62 0.0 0.9 0.00 0.44 0.44 93 1012.6
20260509234603 52 62 0.9 0.9 0.00 0.44 0.44 93 1012.6
20260509234101 52 10 0.9 0.9 0.00 0.44 0.44 93 1012.7
20260509233558 52 10 0.0 0.0 0.00 0.44 0.44 93 1012.7
20260509233056 53 20 0.0 0.9 0.00 0.44 0.44 93 1012.7
20260509232552 53 284 0.0 0.0 0.00 0.44 0.44 92 1012.6
20260509232049 53 13 0.0 0.9 0.00 0.44 0.44 92 1012.4
20260509231545 53 32 0.0 0.9 0.00 0.44 0.44 92 1012.3
20260509231043 53 1 0.9 1.7 0.00 0.44 0.44 91 1012.4
20260509230539 53 9 0.9 0.9 0.00 0.44 0.44 92 1012.1
20260509230037 53 140 1.7 2.6 0.00 0.44 0.44 92 1012.0
20260509225532 54 350 1.7 1.7 0.00 0.44 0.44 92 1012.0
20260509225028 54 61 0.0 0.9 0.00 0.44 0.44 92 1012.1
20260509224524 54 20 0.9 2.6 0.00 0.44 0.44 92 1012.1
20260509224020 54 15 0.9 0.9 0.00 0.44 0.44 92 1012.1
20260509223517 54 1 0.0 2.6 0.00 0.44 0.44 91 1012.2
20260509223015 54 9 0.9 0.9 0.00 0.44 0.44 94 1012.2
20260509222511 53 345 1.7 1.7 0.00 0.44 0.44 94 1012.5
20260509222006 53 335 0.0 0.9 0.00 0.44 0.44 93 1012.4
20260509221503 54 233 3.5 5.2 0.00 0.44 0.44 93 1012.5
20260509220959 54 24 0.9 1.7 0.00 0.44 0.44 92 1012.4
20260509220455 54 27 0.0 0.0 0.00 0.44 0.44 94 1012.5
20260509215951 53 27 0.9 0.9 0.00 0.44 0.44 95 1012.8
20260509215446 53 44 0.9 2.6 0.00 0.44 0.44 94 1012.8
20260509214944 53 272 2.6 5.2 0.00 0.44 0.44 95 1013.3
20260509214442 52 19 0.9 1.7 0.00 0.44 0.44 96 1012.8
20260509213938 52 23 0.9 1.7 0.00 0.44 0.44 96 1013.3
20260509213434 52 290 0.9 2.6 0.00 0.44 0.44 96 1013.2
20260509212931 53 31 0.0 1.7 0.00 0.44 0.44 96 1013.3
20260509212429 52 0 0.9 2.6 0.00 0.44 0.44 95 1013.1
20260509211925 52 339 1.7 2.6 0.00 0.44 0.44 95 1013.1
20260509211421 52 94 0.9 2.6 0.00 0.44 0.44 96 1012.9
20260509210917 52 5 0.9 4.3 0.00 0.44 0.44 95 1013.2
20260509210415 53 3 1.7 1.7 0.00 0.44 0.44 95 1012.9
20260509205910 52 32 0.0 2.6 0.00 0.44 0.44 94 1012.9
20260509205409 52 42 1.7 2.6 0.00 0.44 0.44 96 1012.9
20260509204906 52 17 0.9 2.6 0.00 0.44 0.44 97 1012.9
20260509204402 51 358 0.0 1.7 0.00 0.44 0.44 98 1012.8
20260509203859 51 356 0.9 1.7 0.00 0.44 0.44 97 1013.3
20260509203355 51 342 1.7 1.7 0.07 0.44 0.44 98 1013.2
20260509202853 51 1 1.7 1.7 0.07 0.44 0.44 98 1013.4
20260509202348 51 119 0.0 0.9 0.00 0.43 0.43 98 1013.3
20260509201843 50 48 0.9 1.7 0.00 0.43 0.43 98 1013.4
20260509201339 50 338 1.7 1.7 0.00 0.43 0.43 98 1013.4
20260509200836 51 2 1.7 2.6 0.00 0.43 0.43 98 1013.4
20260509200325 51 354 1.7 5.2 0.00 0.43 0.43 98 1013.6
20260509195822 51 19 0.9 2.6 0.00 0.43 0.43 98 1013.7
20260509195317 51 3 0.9 1.7 0.00 0.43 0.43 98 1013.5
20260509194817 51 32 0.9 1.7 0.00 0.43 0.43 98 1013.6
20260509194313 51 100 1.7 1.7 0.07 0.43 0.43 98 1013.6
20260509193810 50 27 0.9 1.7 0.07 0.43 0.43 99 1013.7
20260509193310 50 9 0.0 1.7 0.00 0.42 0.42 99 1013.8
20260509192806 50 3 0.9 1.7 0.05 0.42 0.42 98 1014.0
20260509192305 50 40 0.9 2.6 0.12 0.42 0.42 98 1013.9
20260509191757 50 319 0.9 1.7 0.07 0.41 0.41 98 1013.8
20260509191254 50 145 0.9 2.6 0.00 0.40 0.40 98 1014.0
20260509190749 50 20 1.7 4.3 0.05 0.40 0.40 98 1013.9
20260509190247 50 70 0.0 4.3 0.07 0.39 0.39 98 1014.2
20260509185744 50 55 0.0 4.3 0.07 0.39 0.39 98 1014.2
20260509185240 50 61 1.7 2.6 0.00 0.38 0.38 98 1014.1
20260509184738 50 91 0.9 5.2 0.05 0.38 0.38 98 1014.1
20260509184235 50 46 0.9 5.2 0.05 0.38 0.38 98 1014.3
20260509183731 50 138 2.6 4.3 0.07 0.37 0.37 98 1014.3
20260509183226 51 12 0.9 4.3 0.07 0.37 0.37 98 1014.3
20260509182722 51 156 5.2 6.1 0.00 0.36 0.36 98 1014.3
20260509182220 51 54 0.0 5.2 0.05 0.36 0.36 98 1014.3
20260509181717 51 140 0.9 5.2 0.05 0.36 0.36 98 1014.3
20260509181215 51 45 1.7 2.6 0.00 0.35 0.35 98 1014.3
20260509180712 51 29 0.0 0.9 0.00 0.35 0.35 99 1014.6
20260509180208 51 346 0.9 1.7 0.07 0.35 0.35 99 1014.3
20260509175704 50 48 0.9 1.7 0.00 0.34 0.34 99 1014.3
20260509175201 51 355 1.7 1.7 0.00 0.34 0.34 98 1014.4
20260509174656 51 345 0.9 1.7 0.05 0.34 0.34 99 1014.4
20260509174151 51 359 1.7 1.7 0.05 0.34 0.34 98 1014.3
20260509173648 51 96 0.9 2.6 0.00 0.33 0.33 98 1014.3
20260509173143 51 352 0.9 4.3 0.07 0.33 0.33 98 1014.3
20260509172640 50 22 0.0 2.6 0.07 0.33 0.33 99 1014.2
20260509172136 50 46 1.7 1.7 0.05 0.32 0.32 99 1014.1
20260509171632 50 107 3.5 5.2 0.05 0.32 0.32 98 1014.0
20260509171128 51 98 2.6 2.6 0.07 0.31 0.31 99 1014.1
20260509170625 50 193 1.7 4.3 0.14 0.31 0.31 99 1014.2
20260509170121 50 141 4.3 6.1 0.12 0.30 0.30 99 1014.2
20260509165619 50 48 0.0 1.7 0.12 0.29 0.29 99 1014.0
20260509165115 50 86 0.9 0.9 0.07 0.28 0.28 99 1014.2
20260509164612 50 76 1.7 4.3 0.05 0.27 0.27 99 1014.2
20260509164107 50 74 0.9 5.2 0.05 0.27 0.27 98 1014.2
20260509163606 50 162 2.6 4.3 0.07 0.26 0.26 98 1014.1
20260509163101 50 41 0.0 2.6 0.07 0.26 0.26 98 1014.4
20260509162558 50 45 0.9 1.7 0.00 0.25 0.25 98 1014.3
20260509162054 50 13 0.9 1.7 0.00 0.25 0.25 98 1014.3
20260509161550 50 117 3.5 4.3 0.05 0.25 0.25 98 1014.2
20260509161045 50 44 0.9 0.9 0.05 0.25 0.25 98 1014.4
20260509160541 50 59 0.9 0.9 0.00 0.24 0.24 98 1014.5
20260509160037 50 49 0.0 0.9 0.00 0.24 0.24 99 1014.5
20260509155533 50 121 1.7 2.6 0.00 0.24 0.24 99 1014.6
20260509155029 50 97 2.6 2.6 0.00 0.24 0.24 98 1014.5
20260509154526 50 49 0.9 1.7 0.00 0.24 0.24 99 1014.7
20260509154023 49 44 0.9 0.9 0.00 0.24 0.24 99 1014.4
20260509153520 49 45 0.0 0.9 0.00 0.24 0.24 99 1014.5
20260509153017 49 51 0.0 2.6 0.00 0.24 0.24 99 1014.6
20260509152513 49 50 0.0 1.7 0.00 0.24 0.24 99 1014.8
20260509152009 48 101 3.5 4.3 0.00 0.24 0.24 99 1015.2
20260509151506 48 63 0.9 1.7 0.07 0.24 0.24 99 1015.6
20260509151005 48 45 0.0 1.7 0.05 0.23 0.23 99 1015.3
20260509150501 48 105 1.7 4.3 0.05 0.23 0.23 99 1015.4
20260509150000 48 58 0.9 1.7 0.00 0.22 0.22 99 1015.3
20260509145455 48 52 0.9 0.9 0.00 0.22 0.22 99 1015.1
20260509144950 48 41 0.0 0.9 0.07 0.22 0.22 99 1014.9
20260509144447 48 43 0.0 0.9 0.00 0.21 0.21 99 1015.1
20260509143944 48 46 0.0 1.7 0.05 0.21 0.21 99 1014.9
20260509143441 48 51 0.0 1.7 0.05 0.21 0.21 99 1015.1
20260509142938 48 45 0.0 0.0 0.07 0.20 0.20 99 1014.9
20260509142434 48 45 0.0 0.9 0.07 0.20 0.20 99 1015.0
20260509141930 48 45 0.9 0.9 0.05 0.19 0.19 99 1015.1
20260509141427 48 43 0.0 1.7 0.07 0.18 0.18 99 1015.2
20260509140924 48 56 0.9 0.9 0.07 0.18 0.18 99 1015.0
20260509140420 48 45 0.0 0.0 0.07 0.17 0.17 99 1015.1
20260509135918 48 44 0.0 0.0 0.05 0.16 0.16 99 1015.0
20260509135416 47 51 0.0 1.7 0.05 0.16 0.16 99 1015.2
20260509134913 47 72 0.9 1.7 0.00 0.15 0.15 99 1014.8
20260509134410 47 32 0.0 1.7 0.07 0.15 0.15 99 1015.0
20260509133907 47 43 0.9 1.7 0.07 0.15 0.15 99 1015.0
20260509133404 47 45 0.9 2.6 0.00 0.14 0.14 99 1014.9
20260509132902 47 44 0.0 0.9 0.05 0.14 0.14 99 1015.0
20260509132400 47 32 0.0 0.9 0.05 0.14 0.14 99 1015.1
20260509131857 47 45 0.0 2.6 0.07 0.13 0.13 99 1014.9
20260509131354 47 51 0.0 1.7 0.07 0.13 0.13 99 1015.2
20260509130851 47 44 0.0 0.0 0.05 0.12 0.12 99 1015.0
20260509130346 47 44 0.9 0.9 0.07 0.11 0.11 99 1014.8
20260509125843 47 2 0.9 1.7 0.07 0.11 0.11 99 1015.1
20260509125339 47 82 1.7 2.6 0.00 0.10 0.10 98 1014.8
20260509124835 47 16 0.9 2.6 0.05 0.10 0.10 98 1015.3
20260509124332 47 51 0.9 1.7 0.00 0.09 0.09 98 1015.0
20260509123830 47 49 0.0 0.9 0.00 0.09 0.09 98 1014.9
20260509123328 47 81 0.9 0.9 0.07 0.09 0.09 98 1014.8
20260509122823 47 38 1.7 1.7 0.07 0.09 0.09 98 1014.9
20260509122320 47 68 1.7 1.7 0.00 0.08 0.08 98 1015.1
20260509121817 47 38 0.9 1.7 0.00 0.08 0.08 98 1014.8
20260509121314 47 51 0.9 0.9 0.00 0.08 0.08 98 1015.0
20260509120813 47 50 0.0 0.9 0.00 0.08 0.08 99 1015.0
20260509120310 47 69 0.9 0.9 0.00 0.08 0.08 99 1014.9
20260509115808 47 45 0.0 0.9 0.00 0.08 0.08 99 1015.1
20260509115307 47 51 0.0 0.9 0.00 0.08 0.08 99 1015.1
20260509114803 47 58 0.9 2.6 0.00 0.08 0.08 99 1014.8
20260509114301 47 51 0.0 1.7 0.00 0.08 0.08 99 1015.0
20260509113800 47 47 0.0 0.9 0.00 0.08 0.08 99 1015.0
20260509113256 47 37 0.0 0.9 0.00 0.08 0.08 99 1015.0
20260509112753 47 55 0.9 0.9 0.00 0.08 0.08 99 1014.9
20260509112250 47 38 0.9 0.9 0.00 0.08 0.08 99 1015.0
20260509111747 47 51 0.0 0.9 0.00 0.08 0.08 99 1015.2
20260509111244 46 50 0.0 0.0 0.00 0.08 0.08 99 1015.1
20260509110741 46 49 0.0 0.9 0.00 0.08 0.08 99 1015.0
20260509110238 46 37 0.0 0.0 0.05 0.08 0.08 99 1015.3
20260509105736 46 38 0.0 0.9 0.05 0.08 0.08 99 1015.0
20260509105234 46 45 0.0 0.9 0.00 0.07 0.07 99 1015.1
20260509104730 46 57 0.9 1.7 0.00 0.07 0.07 99 1015.0
20260509104227 46 37 0.0 0.0 0.00 0.07 0.07 99 1015.4
20260509103725 46 37 0.0 0.9 0.00 0.07 0.07 99 1015.4
20260509103222 46 37 0.0 0.0 0.00 0.07 0.07 99 1015.3
20260509102720 46 37 0.0 0.0 0.00 0.07 0.07 99 1015.3
20260509102217 46 37 0.0 0.0 0.00 0.07 0.07 99 1015.3
20260509101714 46 37 0.0 0.0 0.00 0.07 0.07 99 1015.3
20260509101210 46 37 0.0 0.0 0.00 0.07 0.07 99 1015.1
20260509100708 46 37 0.0 0.0 0.00 0.07 0.07 99 1015.1
20260509100204 46 37 0.0 0.0 0.00 0.07 0.07 99 1015.0
20260509095701 46 37 0.0 0.0 0.00 0.07 0.07 99 1015.1
20260509095158 46 37 0.0 0.0 0.00 0.07 0.07 99 1015.1
20260509094655 46 37 0.0 0.0 0.00 0.07 0.07 99 1015.0
20260509094152 46 37 0.0 0.0 0.00 0.07 0.07 99 1015.1
20260509093651 46 38 0.0 0.9 0.00 0.07 0.07 99 1014.9
20260509093147 46 38 0.0 0.9 0.07 0.07 0.07 99 1015.1
20260509092645 46 38 0.0 0.0 0.07 0.07 0.07 99 1015.3
20260509092143 46 38 0.0 0.0 0.00 0.06 0.06 99 1015.3
20260509091641 46 38 0.0 0.0 0.00 0.06 0.06 99 1015.3
20260509091137 46 38 0.0 0.0 0.00 0.06 0.06 99 1015.6
20260509090635 46 38 0.0 0.0 0.00 0.06 0.06 99 1015.7
20260509090132 46 38 0.0 0.0 0.00 0.06 0.06 99 1015.7
20260509085629 46 38 0.0 0.0 0.00 0.06 0.06 99 1015.8
20260509085125 46 38 0.0 0.0 0.00 0.06 0.06 99 1015.7
20260509084623 46 38 0.9 0.9 0.00 0.06 0.06 99 1015.4
20260509084120 46 38 0.0 0.9 0.00 0.06 0.06 99 1015.7
20260509083617 46 37 0.0 0.9 0.00 0.06 0.06 99 1015.6
20260509083113 46 37 0.0 0.0 0.00 0.06 0.06 99 1015.6
20260509082611 46 37 0.0 0.0 0.00 0.06 0.06 99 1015.8
20260509082107 46 63 0.0 0.9 0.00 0.06 0.06 99 1015.6
20260509081605 46 50 0.0 0.9 0.00 0.06 0.06 99 1015.4
20260509081101 46 50 0.0 0.9 0.00 0.06 0.06 99 1015.4
20260509080600 46 37 0.0 0.0 0.00 0.06 0.06 99 1015.6
20260509080057 46 37 0.0 0.0 0.00 0.06 0.06 99 1015.6
20260509075555 46 37 0.0 0.9 0.00 0.06 0.06 99 1015.3
20260509075052 46 25 0.0 0.0 0.00 0.06 0.06 99 1015.4
20260509074549 46 25 0.0 0.0 0.00 0.06 0.06 99 1015.3
20260509074046 46 25 0.0 0.0 0.07 0.06 0.06 99 1015.3
20260509073542 46 25 0.0 0.0 0.07 0.06 0.06 99 1015.4
20260509073039 46 25 0.9 0.9 0.00 0.05 0.05 98 1015.3
20260509072535 46 25 0.0 0.9 0.00 0.05 0.05 98 1015.4
20260509072032 46 25 0.0 0.0 0.00 0.05 0.05 98 1015.4
20260509071529 46 25 0.0 0.9 0.00 0.05 0.05 98 1015.6
20260509071027 46 25 0.0 0.0 0.00 0.05 0.05 98 1015.4
20260509070524 46 25 0.0 0.0 0.00 0.05 0.05 98 1015.7
20260509070020 46 25 0.0 0.0 0.00 0.05 0.05 98 1015.9
20260509065515 46 25 0.0 0.0 0.00 0.05 0.05 98 1016.1
20260509065012 46 25 0.0 0.0 0.05 0.05 0.05 97 1015.9
20260509064510 46 25 0.0 0.0 0.00 0.04 0.04 97 1016.2
20260509064008 45 24 0.0 0.9 0.07 0.04 0.04 97 1016.4
20260509063503 45 37 0.0 0.0 0.07 0.04 0.04 97 1016.2
20260509063000 45 37 0.0 0.9 0.00 0.03 0.03 96 1016.3
20260509062457 45 37 0.0 0.0 0.05 0.03 0.03 96 1016.3
20260509061955 45 37 0.0 0.9 0.12 0.03 0.03 95 1016.3
20260509061452 46 37 0.9 1.7 0.07 0.02 0.02 95 1016.3
20260509060949 46 115 2.6 2.6 0.00 0.01 0.01 94 1016.2
20260509060446 46 54 0.0 1.7 0.05 0.01 0.01 93 1016.3
20260509055942 46 37 0.0 0.9 0.00 0.00 0.00 93 1016.2
20260509055437 46 36 0.0 0.9 0.00 0.00 0.00 93 1015.6
20260509054934 46 36 0.0 0.0 0.00 0.00 0.00 94 1015.6
20260509054431 46 36 0.9 0.9 0.00 0.00 0.00 94 1015.6
20260509053929 46 36 0.0 0.0 0.00 0.00 0.00 94 1015.7
20260509053426 46 36 0.0 0.0 0.00 0.00 0.00 94 1015.9
20260509052924 46 36 0.0 0.0 0.00 0.00 0.00 94 1015.9
20260509052421 46 36 0.0 0.9 0.00 0.00 0.00 94 1015.8
20260509051919 46 29 0.0 0.0 0.00 0.00 0.00 94 1015.9
20260509051416 46 29 0.0 0.0 0.00 0.00 0.00 93 1015.9
20260509050913 46 28 0.0 0.0 0.00 0.00 0.00 93 1015.8
20260509050410 46 29 0.9 0.9 0.00 0.00 0.00 92 1015.8
20260509045907 46 30 0.0 0.9 0.00 0.00 0.00 91 1015.7
20260509045404 46 30 0.0 0.0 0.00 0.00 0.00 91 1015.8